Погода в Магадане

Россия / Магаданская область     59°34′05″N   150°48′30″E
темп.,
°C
ветер,
м/с
пор.,
м/с
влажн.,
%
обл.,
%
осадки,
мм/ч
давл.,
гПа
погр.,
м
9 марта, вт
вт923:00−23сз22810 0.0 100620
02:00−24ссв11790 0.0 100620
05:00−25св22810 0.0 100620
08:00−25св228041 0.0 100720
11:00−22вюв227951 0.0 1008164
14:00−20ююв118559 0.0 1008263
17:00−21ююз119257 0.0 100848
20:00−24ссв01960 0.0 101020
10 марта, ср
ср1023:00−24св12940 0.0 101220
02:00−24св229213 0.0 101320
05:00−24св238930 0.0 101420
08:00−25св238413 0.0 101521
11:00−21св23786 0.0 1016162
14:00−18всв12760 0.0 1015272
17:00−19св01860 0.0 101527
20:00−21ссв22840 0.0 101620
11 марта, чт
чт1123:00−22св22780 0.0 101720
02:00−23ссв12770 0.0 101620
05:00−23св22770 0.0 101620
08:00−24ссв12780 0.0 101620
11:00−20в11730 0.0 1015117
14:00−18з22780 0.0 1013208
17:00−19з12910 0.0 101234
20:00−22сз229688 0.0 101220
12 марта, пт
пт1223:00−22ссв119583 0.0 101120
02:00−23св129482 0.0 100920
05:00−23св229184 0.0 100720
08:00−23ссз119097 0.0 100720
11:00−20вюв118194 0.0 1005134
14:00−18зюз2286100 0.0 1003230
17:00−17з2391100 0.1 1002261
20:00−18з229496 0.1 100320
13 марта, сб
сб1323:00−18сз129297 0.1 100320
02:00−20ссв128989 0.0 100220
05:00−21св228568 0.0 100220
08:00−22ссв227412 0.0 100320
11:00−18сз11646 0.0 1003127
14:00−16зюз12650 0.0 1002278
17:00−16зюз33850 0.0 100250
20:00−18сз33820 0.0 100423